| time (UTC) | temp C | wind direction | speed KPH | gust KPH | rain 1hr cm | rain 24hr cm | rain mn cm | humidity % | barometer mb |
| 20260906121549 | 25 | 248 | 0.0 | 1.6 | 0.00 | 0.00 | 0.00 | 95 | 1012.7 |
| 20260906120021 | 25 | 249 | 0.0 | 0.0 | 0.00 | 0.00 | 0.00 | 95 | 1012.8 |
| 20260906114605 | 25 | 250 | 0.0 | 0.0 | 0.00 | 0.00 | 0.00 | 94 | 1013.0 |
| 20260906113019 | 25 | 251 | 0.0 | 0.0 | 0.00 | 0.00 | 0.00 | 94 | 1012.9 |
| 20260906111553 | 25 | 251 | 0.0 | 0.0 | 0.00 | 0.00 | 0.00 | 94 | 1012.7 |
| 20260906110029 | 25 | 251 | 0.0 | 3.2 | 0.00 | 0.10 | 0.00 | 93 | 1012.2 |
| 20260906104623 | 25 | 250 | 0.0 | 6.4 | 0.00 | 0.10 | 0.00 | 93 | 1011.7 |
| 20260906104500 | 25 | 250 | 0.0 | 6.4 | 0.00 | 0.10 | 0.00 | 93 | 1011.6 |
| 20260906103034 | 25 | 248 | 0.0 | 6.4 | 0.00 | 0.10 | 0.00 | 93 | 1011.4 |
| 20260906101507 | 25 | 261 | 0.0 | 3.2 | 0.00 | 0.10 | 0.00 | 93 | 1011.4 |
| 20260906100044 | 25 | 260 | 1.6 | 4.8 | 0.00 | 0.10 | 0.00 | 93 | 1011.6 |
| 20260906094513 | 26 | 262 | 0.0 | 6.4 | 0.00 | 0.10 | 0.00 | 93 | 1011.5 |
| 20260906093053 | 26 | 302 | 0.0 | 1.6 | 0.00 | 0.10 | 0.00 | 92 | 1011.4 |
| 20260906091512 | 26 | 310 | 0.0 | 6.4 | 0.00 | 0.10 | 0.00 | 92 | 1011.4 |
| 20260906090049 | 26 | 307 | 0.0 | 8.0 | 0.00 | 0.10 | 0.00 | 91 | 1011.2 |
| 20260906084523 | 26 | 277 | 1.6 | 11.3 | 0.00 | 0.10 | 0.00 | 91 | 1011.0 |
| 20260906083038 | 26 | 275 | 3.2 | 9.7 | 0.00 | 0.10 | 0.00 | 91 | 1011.1 |
| 20260906081552 | 26 | 263 | 1.6 | 11.3 | 0.00 | 0.10 | 0.00 | 91 | 1011.2 |
| 20260906080033 | 26 | 289 | 1.6 | 8.0 | 0.00 | 0.10 | 0.00 | 92 | 1011.3 |
| 20260906074601 | 26 | 280 | 0.0 | 6.4 | 0.00 | 0.10 | 0.00 | 92 | 1011.4 |
| 20260906073035 | 26 | 284 | 0.0 | 6.4 | 0.00 | 0.10 | 0.00 | 92 | 1011.4 |
| 20260906071504 | 26 | 171 | 0.0 | 8.0 | 0.00 | 0.10 | 0.00 | 92 | 1011.4 |
| 20260906070040 | 26 | 210 | 0.0 | 3.2 | 0.00 | 0.10 | 0.00 | 91 | 1011.5 |
| 20260906064512 | 26 | 265 | 0.0 | 6.4 | 0.00 | 0.10 | 0.00 | 91 | 1011.3 |
| 20260906063044 | 26 | 229 | 3.2 | 9.7 | 0.00 | 0.10 | 0.00 | 91 | 1011.7 |
| 20260906061513 | 26 | 239 | 0.0 | 8.0 | 0.00 | 0.10 | 0.00 | 91 | 1011.5 |
| 20260906060041 | 26 | 278 | 0.0 | 6.4 | 0.00 | 0.10 | 0.00 | 91 | 1011.9 |
| 20260906054516 | 26 | 188 | 0.0 | 8.0 | 0.00 | 0.10 | 0.00 | 91 | 1012.1 |
| 20260906053055 | 26 | 161 | 3.2 | 8.0 | 0.00 | 0.10 | 0.00 | 91 | 1012.2 |
| 20260906051534 | 27 | 181 | 0.0 | 3.2 | 0.00 | 0.10 | 0.00 | 91 | 1012.2 |
| 20260906050010 | 26 | 177 | 0.0 | 3.2 | 0.00 | 0.10 | 0.00 | 91 | 1012.1 |
| 20260906044544 | 27 | 156 | 1.6 | 8.0 | 0.00 | 0.10 | 0.00 | 91 | 1012.2 |
| 20260906043102 | 26 | 157 | 0.0 | 8.0 | 0.00 | 0.10 | 0.00 | 91 | 1012.3 |
| 20260906043002 | 26 | 157 | 0.0 | 8.0 | 0.00 | 0.10 | 0.00 | 91 | 1012.3 |
| 20260906041524 | 27 | 149 | 1.6 | 9.7 | 0.00 | 0.10 | 0.00 | 91 | 1012.1 |
| 20260906040050 | 27 | 156 | 1.6 | 6.4 | 0.00 | 0.10 | 0.10 | 90 | 1012.4 |
| 20260906034540 | 27 | 162 | 1.6 | 9.7 | 0.00 | 0.10 | 0.10 | 90 | 1012.5 |
| 20260906033110 | 27 | 180 | 1.6 | 4.8 | 0.00 | 0.10 | 0.10 | 90 | 1012.8 |
| 20260906033003 | 27 | 183 | 1.6 | 6.4 | 0.00 | 0.10 | 0.10 | 90 | 1012.7 |
| 20260906031546 | 27 | 140 | 0.0 | 6.4 | 0.00 | 0.10 | 0.10 | 90 | 1012.8 |
| 20260906030013 | 27 | 161 | 0.0 | 6.4 | 0.00 | 0.10 | 0.10 | 89 | 1013.1 |
| 20260906024607 | 27 | 140 | 0.0 | 8.0 | 0.00 | 0.10 | 0.10 | 89 | 1012.9 |
| 20260906023026 | 27 | 151 | 1.6 | 6.4 | 0.00 | 0.10 | 0.10 | 89 | 1012.9 |
| 20260906021504 | 27 | 157 | 0.0 | 4.8 | 0.00 | 0.10 | 0.10 | 89 | 1013.0 |
| 20260906020050 | 27 | 144 | 1.6 | 8.0 | 0.00 | 0.13 | 0.10 | 88 | 1012.8 |
| 20260906014520 | 27 | 155 | 3.2 | 9.7 | 0.00 | 0.13 | 0.10 | 89 | 1012.6 |
| 20260906013048 | 27 | 94 | 0.0 | 0.0 | 0.00 | 0.13 | 0.10 | 89 | 1012.4 |
| 20260906011522 | 27 | 93 | 0.0 | 3.2 | 0.00 | 0.13 | 0.10 | 89 | 1012.2 |
| 20260906010040 | 27 | 152 | 0.0 | 1.6 | 0.00 | 0.13 | 0.10 | 89 | 1012.0 |
| 20260906004518 | 28 | 152 | 0.0 | 3.2 | 0.00 | 0.13 | 0.10 | 89 | 1011.7 |
| 20260906003054 | 28 | 117 | 0.0 | 3.2 | 0.00 | 0.13 | 0.10 | 89 | 1011.5 |
| 20260906001526 | 28 | 117 | 0.0 | 6.4 | 0.00 | 0.13 | 0.10 | 88 | 1011.5 |
| 20260906000004 | 28 | 124 | 0.0 | 3.2 | 0.00 | 0.13 | 0.10 | 87 | 1011.3 |
| 20260905234516 | 29 | 137 | 0.0 | 3.2 | 0.00 | 0.13 | 0.10 | 85 | 1011.4 |
| 20260905233056 | 29 | 159 | 1.6 | 8.0 | 0.00 | 0.13 | 0.10 | 84 | 1011.5 |
| 20260905231541 | 30 | 108 | 1.6 | 6.4 | 0.00 | 0.13 | 0.10 | 83 | 1011.4 |
| 20260905230009 | 30 | 155 | 1.6 | 11.3 | 0.00 | 0.13 | 0.10 | 81 | 1011.5 |
| 20260905224547 | 31 | 72 | 0.0 | 6.4 | 0.00 | 0.13 | 0.10 | 78 | 1011.8 |
| 20260905223007 | 31 | 275 | 0.0 | 0.0 | 0.00 | 0.13 | 0.10 | 76 | 1011.8 |
| 20260905221551 | 32 | 275 | 0.0 | 0.0 | 0.00 | 0.13 | 0.10 | 76 | 1011.9 |
| 20260905220021 | 32 | 238 | 0.0 | 3.2 | 0.00 | 0.13 | 0.10 | 67 | 1011.9 |
| 20260905214555 | 32 | 176 | 0.0 | 3.2 | 0.00 | 0.13 | 0.10 | 66 | 1012.0 |
| 20260905213029 | 33 | 204 | 0.0 | 4.8 | 0.00 | 0.13 | 0.10 | 66 | 1012.0 |
| 20260905211518 | 32 | 279 | 3.2 | 11.3 | 0.00 | 0.13 | 0.10 | 65 | 1012.0 |
| 20260905210045 | 33 | 259 | 0.0 | 8.0 | 0.00 | 0.13 | 0.10 | 65 | 1011.9 |
| 20260905204522 | 34 | 241 | 4.8 | 12.9 | 0.00 | 0.13 | 0.10 | 63 | 1011.8 |
| 20260905203102 | 34 | 295 | 3.2 | 14.5 | 0.00 | 0.13 | 0.10 | 63 | 1011.5 |
| 20260905201535 | 33 | 300 | 8.0 | 12.9 | 0.00 | 0.13 | 0.10 | 64 | 1011.6 |
| 20260905200059 | 33 | 334 | 6.4 | 11.3 | 0.00 | 0.13 | 0.10 | 67 | 1011.7 |
| 20260905194510 | 32 | 283 | 4.8 | 16.1 | 0.00 | 0.13 | 0.10 | 67 | 1011.8 |
| 20260905193017 | 33 | 227 | 4.8 | 17.7 | 0.00 | 0.13 | 0.10 | 67 | 1012.2 |
| 20260905191551 | 33 | 180 | 3.2 | 12.9 | 0.00 | 0.13 | 0.10 | 67 | 1012.1 |
| 20260905190017 | 32 | 277 | 4.8 | 17.7 | 0.00 | 0.15 | 0.10 | 69 | 1012.4 |
| 20260905184551 | 32 | 3 | 4.8 | 14.5 | 0.00 | 0.15 | 0.10 | 69 | 1012.5 |
| 20260905183009 | 32 | 315 | 4.8 | 11.3 | 0.00 | 0.15 | 0.10 | 71 | 1013.0 |
| 20260905181537 | 32 | 290 | 4.8 | 12.9 | 0.00 | 0.15 | 0.10 | 73 | 1013.2 |
| 20260905180015 | 32 | 280 | 8.0 | 14.5 | 0.00 | 0.23 | 0.10 | 73 | 1013.5 |
| 20260905174548 | 31 | 336 | 8.0 | 12.9 | 0.00 | 0.23 | 0.10 | 76 | 1013.4 |
| 20260905173009 | 31 | 353 | 8.0 | 14.5 | 0.00 | 0.23 | 0.10 | 77 | 1013.7 |
| 20260905171547 | 31 | 299 | 6.4 | 12.9 | 0.00 | 0.23 | 0.10 | 76 | 1014.1 |
| 20260905170015 | 31 | 328 | 1.6 | 11.3 | 0.00 | 0.30 | 0.10 | 73 | 1014.2 |
| 20260905164547 | 30 | 314 | 3.2 | 12.9 | 0.00 | 0.30 | 0.10 | 78 | 1014.6 |
| 20260905163007 | 30 | 271 | 1.6 | 14.5 | 0.00 | 0.30 | 0.10 | 79 | 1014.9 |
| 20260905161524 | 30 | 281 | 1.6 | 9.7 | 0.00 | 0.30 | 0.10 | 81 | 1015.2 |
| 20260905160055 | 29 | 325 | 3.2 | 11.3 | 0.00 | 0.41 | 0.10 | 84 | 1015.4 |
| 20260905154537 | 29 | 292 | 3.2 | 11.3 | 0.00 | 0.41 | 0.10 | 82 | 1015.7 |
| 20260905153048 | 29 | 256 | 1.6 | 9.7 | 0.00 | 0.41 | 0.10 | 84 | 1015.7 |
| 20260905151519 | 28 | 273 | 4.8 | 11.3 | 0.00 | 0.41 | 0.10 | 84 | 1015.9 |
| 20260905150046 | 28 | 306 | 6.4 | 14.5 | 0.00 | 0.41 | 0.10 | 87 | 1015.6 |
| 20260905144515 | 28 | 284 | 3.2 | 11.3 | 0.00 | 0.41 | 0.10 | 86 | 1015.6 |
| 20260905143047 | 27 | 293 | 4.8 | 9.7 | 0.00 | 0.41 | 0.10 | 89 | 1015.6 |
| 20260905141521 | 27 | 292 | 4.8 | 9.7 | 0.00 | 0.41 | 0.10 | 90 | 1015.6 |
| 20260905140059 | 26 | 328 | 6.4 | 9.7 | 0.00 | 0.41 | 0.10 | 94 | 1015.8 |
| 20260905134542 | 26 | 311 | 1.6 | 11.3 | 0.00 | 0.41 | 0.10 | 97 | 1015.7 |
| 20260905133040 | 25 | 264 | 0.0 | 8.0 | 0.00 | 0.41 | 0.10 | 98 | 1015.6 |
| 20260905131510 | 25 | 286 | 0.0 | 8.0 | 0.00 | 0.41 | 0.10 | 99 | 1015.3 |
| 20260905130047 | 25 | 294 | 1.6 | 9.7 | 0.00 | 0.41 | 0.10 | 99 | 1015.3 |
| 20260905124520 | 25 | 282 | 0.0 | 4.8 | 0.00 | 0.41 | 0.10 | 99 | 1015.5 |
| 20260905123050 | 24 | 286 | 0.0 | 4.8 | 0.00 | 0.41 | 0.10 | 99 | 1015.4 |